Search for airport 
image banner adimage banner adimage banner ad
image banner ad

A28 - Fort Bidwell

Located in Fort Bidwell, United States

ICAO - A28, IATA -

Data provided by Airmate  

General information

Coordinates: N41°52'35" W120°8'48"
Elevation is 4616 feet MSL.
Magnetic variation is 17° East
View others Airports in California

Operational data

Special qualification required
Current time UTC:
Current local time:
Weather at : KLKV - Lake County ( 38 km )
METAR: KLKV 210053Z AUTO 09008KT 10SM CLR 21/M03 A3032 RMK AO2 SLP254 T02061028
View NOTAMs / SUP AIP / TFR affecting this airport [VIEW]
Communications frequencies: [VIEW]

Runways:

RWY identifierQFULength (ft)Width (ft)SurfaceLDA (ft)
16181°366050OTHER
34366050OTHER

Airport contact information

Address: Fort Bidwell United States

Satellite view of A28